Vancouver, WA
on Friday, February 1, 2013

Friday
Previous Day Next Day
Daily Summary
 ActualAverageRecord
Temperature
Mean Temperature °F 43°F  
Max Temperature 54°F 50°F 65°F (1935)
Min Temperature 34°F 36°F 0°F (1950)
Degree Days
Heating Degree Days 21    
Month to date heating degree days 21  
Since 1 July heating degree days 2444  
Cooling Degree Days 0    
Month to date cooling degree days 0  
Year to date cooling degree days 0  
Moisture
Dew Point 41°F   
Average Humidity 83    
Maximum Humidity 100    
Minimum Humidity 66    
Precipitation
Precipitation 0.00 in 0.17 in 2.90 in (1987)
Month to date precipitation 0.00 0.17  
Year to date precipitation 3.40 5.67  
Snow
Snow 0.00 in in in ()
Month to date snowfall 0.0  
Snow Depth 0.00 in   
Wind
Wind Speed 2 mph   
Max Wind Speed 10 mph   
Max Gust Speed 13 mph   
Visibility 5 miles   
Events Fog   

Key: T is trace of precipitation, MM is missing value
Source: NWS Daily Summary
Time(PST)TemperatureDew PointHumidity Pressure Visibility Wind DirectionWind SpeedGust SpeedPrecipitationEvents Conditions
12:24 AM 44.6°F 42.8°F 93% 30.36 in 1.8 miles Calm Calm - N/A   Overcast
12:30 AM 44.6°F 42.8°F 93% 30.36 in 0.8 miles Calm Calm - N/A   Overcast
12:45 AM 42.8°F 42.8°F 100% 30.36 in 0.2 miles Calm Calm - N/A Fog Fog
12:53 AM 42.1°F 42.1°F 100% 30.37 in 0.2 miles Calm Calm - N/A Fog Fog
1:03 AM 42.8°F 41.0°F 93% 30.36 in 0.5 miles Calm Calm - N/A Fog Fog
1:14 AM 42.8°F 42.8°F 100% 30.36 in 1.5 miles Calm Calm - N/A   Overcast
1:27 AM 42.8°F 41.0°F 93% 30.36 in 1.0 miles Calm Calm - N/A   Overcast
1:45 AM 44.6°F 42.8°F 93% 30.36 in 2.0 miles Calm Calm - N/A   Overcast
1:53 AM 43.0°F 42.1°F 97% 30.36 in 5.0 miles Calm Calm - N/A   Mostly Cloudy
1:58 AM 42.8°F 41.0°F 93% 30.36 in 1.5 miles Calm Calm - N/A   Mostly Cloudy
2:00 AM 42.8°F 41.0°F 93% 30.36 in 0.8 miles Calm Calm - N/A   Mostly Cloudy
2:04 AM 42.8°F 41.0°F 93% 30.36 in 0.2 miles Calm Calm - N/A Fog Fog
2:31 AM 39.2°F 37.4°F 93% 30.36 in 0.2 miles Calm Calm - N/A Fog Fog
2:53 AM 39.9°F 39.0°F 97% 30.36 in 0.2 miles Calm Calm - N/A Fog Fog
3:09 AM 37.4°F 37.4°F 100% 30.35 in 0.2 miles Calm Calm - N/A Fog Fog
3:53 AM 44.1°F 43.0°F 96% 30.36 in 0.2 miles Calm Calm - N/A Fog Fog
4:38 AM 44.6°F 42.8°F 93% 30.36 in 0.5 miles Calm Calm - N/A Fog Fog
4:53 AM 44.1°F 43.0°F 96% 30.36 in 0.5 miles Calm Calm - N/A Fog Fog
5:03 AM 44.6°F 42.8°F 93% 30.36 in 0.2 miles Calm Calm - N/A Fog Fog
5:43 AM 44.6°F 44.6°F 100% 30.35 in 0.5 miles Calm Calm - N/A Fog Fog
5:53 AM 45.0°F 44.1°F 97% 30.36 in 1.0 miles Calm Calm - N/A   Mist
5:58 AM 44.6°F 44.6°F 100% 30.35 in 2.0 miles Calm Calm - N/A   Overcast
6:27 AM 44.6°F 44.6°F 100% 30.35 in 3.0 miles Calm Calm - N/A   Overcast
6:53 AM 45.0°F 44.1°F 97% 30.35 in 3.0 miles Calm Calm - N/A   Overcast
7:45 AM 44.6°F 44.6°F 100% 30.35 in 2.0 miles Calm Calm - N/A   Overcast
7:53 AM 45.0°F 44.1°F 97% 30.35 in 3.0 miles West 3.5 mph - N/A   Overcast
8:05 AM 44.6°F 44.6°F 100% 30.35 in 2.5 miles WNW 3.5 mph - N/A   Overcast
8:32 AM 44.6°F 42.8°F 93% 30.36 in 4.0 miles NW 3.5 mph - N/A   Overcast
9:01 AM 46.4°F 42.8°F 87% 30.36 in 10.0 miles Calm Calm - N/A   Overcast
9:53 AM 46.0°F 43.0°F 89% 30.38 in 10.0 miles Calm Calm - N/A   Overcast
10:33 AM 48.2°F 42.8°F 82% 30.38 in 10.0 miles Calm Calm - N/A   Overcast
10:53 AM 48.9°F 43.0°F 80% 30.38 in 10.0 miles NNW 3.5 mph - N/A   Mostly Cloudy
11:04 AM 48.2°F 42.8°F 82% 30.37 in 10.0 miles NNW 5.8 mph - N/A   Scattered Clouds
11:53 AM 50.0°F 41.0°F 71% 30.37 in 10.0 miles Calm Calm - N/A   Scattered Clouds
12:02 PM 50.0°F 41.0°F 71% 30.36 in 10.0 miles Calm Calm - N/A   Mostly Cloudy
12:53 PM 51.1°F 43.0°F 74% 30.34 in 10.0 miles Variable 4.6 mph - N/A   Mostly Cloudy
1:13 PM 51.8°F 42.8°F 71% 30.33 in 10.0 miles WNW 6.9 mph - N/A   Scattered Clouds
1:53 PM 52.0°F 42.1°F 69% 30.31 in 10.0 miles WNW 6.9 mph - N/A   Partly Cloudy
2:53 PM 52.0°F 42.1°F 69% 30.30 in 10.0 miles WNW 8.1 mph - N/A   Clear
3:53 PM 53.1°F 42.1°F 66% 30.29 in 10.0 miles WNW 8.1 mph - N/A   Clear
4:53 PM 52.0°F 43.0°F 71% 30.28 in 10.0 miles NNW 5.8 mph - N/A   Clear
5:53 PM 50.0°F 43.0°F 77% 30.28 in 10.0 miles NW 3.5 mph - N/A   Clear
6:53 PM 46.0°F 41.0°F 83% 30.29 in 10.0 miles Calm Calm - N/A   Clear
7:53 PM 43.0°F 39.0°F 86% 30.30 in 10.0 miles Calm Calm - N/A   Clear
8:53 PM 39.0°F 37.0°F 93% 30.30 in 10.0 miles Calm Calm - N/A   Clear
9:34 PM 35.6°F 33.8°F 93% 30.30 in 1.8 miles Calm Calm - N/A   Clear
9:47 PM 37.4°F 35.6°F 93% 30.31 in 4.0 miles Calm Calm - N/A   Clear
9:53 PM 37.0°F 36.0°F 96% 30.31 in 10.0 miles Calm Calm - N/A   Clear
10:53 PM 37.0°F 35.1°F 93% 30.30 in 8.0 miles Calm Calm - N/A   Clear
11:23 PM 35.6°F 33.8°F 93% 30.30 in 2.5 miles Calm Calm - N/A   Partly Cloudy
11:38 PM 33.8°F 33.8°F 100% 30.30 in 7.0 miles Calm Calm - N/A   Clear
11:53 PM 34.0°F 32.0°F 92% 30.30 in 9.0 miles Calm Calm - N/A   Clear
Moon Phase
Feb. 01 Feb. 03 Feb. 10 Feb. 17 Feb. 25
Sunrise:07:31 AM (PST) Moon Rise:11:53 PM (PST)2/1
Sunset:05:17 PM (PST) Moon Set:09:47 AM (PST)2/1

Copyright © 2014 The Weather Underground, Inc.